User: anonymous   Login
Location: Étavigny
(49.1201°N, 2.9800°E)
Time: 13:41:13
(UTC+00:00)
Language:

deb Kosmos- 1791 - Orbit

View from above orbital plane
View from above orbital plane
View from above satellite
View from above satellite

Ground track
Ground track

The orbit data is extracted from the following two-line orbital elements,

1 18552U 86086C   24053.54619394  .00003450  00000-0  16887-2 0  9998
2 18552  82.9191  90.0356 0027579 343.5698 168.5685 14.17455665902839
Epoch (UTC): 22 February 2024 13:06:31
Eccentricity: 0.0027579
inclination: 82.9191°
perigee height: 814 km
apogee height: 854 km
right ascension of ascending node: 90.0356°
argument of perigee: 343.5698°
revolutions per day: 14.17455665
mean anomaly at epoch: 168.5685°
orbit number at epoch: 90283

The dashed part of the orbit path shows where the satellite is in the earth's shadow,  

DLR